Content
SEND FEEDBACK

Daily
Averages
Monthly
Summary
Algeria

SETIF, ALGERIA


Home > Africa > Algeria
Elevation: 3547 feet     Latitude: 36 10N     Longitude: 005 25E

WEATHER
 
SELECT A DAY
Number of Records: 119,314;   Date Range: 10/25/01 - 8/31/14
 
SHARE

PRINT THIS DATA

[ ← Previous Day ]
WEATHER ALMANAC - JANUARY 31, 2013
[ Next Day → ]
[ °C ]   °F
Weather ElementAverageHighLow
Temperature47.4 °F64.4 °F (5:00 pm)33.8 °F (8:00 am)
Dewpoint31.2 °F46.4 °F (6:00 pm)19.4 °F (4:00 am)
Humidity53.1 %87 % (10:00 pm)21 % (4:00 pm)
Barometer30.45 in30.48 in (10:00 am)30.42 in (1:00 am)
Wind Speed3.9 mph6.9 mph (3:00 pm)
Weather ElementAverage
Visibility8.6 mi
Wind DirectionSSW (212 °)

Weather ElementTotal
Precipitation---
Heating Degree Days15.9 (Base 65)
Averaged from 31 records on January 31, 2013
WEATHER CONDITIONS BREAKOUT
WIND DIRECTION BREAKOUT
WEATHER BY HOUR - JANUARY 31, 2013
[ °C ]   °F
Local TimeTemperatureDewpointHumidityBarometerVisibilityWind DirectionWind SpeedGust SpeedPrecipitationEventsConditions
1:00 AM39.0 °F26.0 °F48 %6.0 miNNW (340°)2.3 mphClear
1:00 AM39.2 °F26.6 °F61 %30.42 inNNW (340°)2.3 mphClear
2:00 AM37.4 °F26.6 °F65 %30.42 inNW (320°)4.6 mphClear
3:00 AM37.4 °F26.6 °F65 %30.42 inNW (320°)4.6 mphClear
4:00 AM41.0 °F20.0 °F30 %6.0 miWest (280°)5.8 mphClear
4:00 AM41.0 °F19.4 °F42 %30.42 inWest (280°)5.8 mphClear
5:00 AM37.4 °F26.6 °F65 %30.42 inNW (320°)2.3 mphClear
6:00 AM37.4 °F24.8 °F60 %30.42 inNorth (360°)4.6 mphClear
7:00 AM37.0 °F22.0 °F41 %6.0 miWest (280°)4.6 mphClear
7:00 AM37.4 °F21.2 °F52 %30.45 inWest (280°)4.6 mphClear
8:00 AM33.8 °F24.8 °F70 %30.45 inWest (280°)3.5 mphClear
9:00 AM42.8 °F26.6 °F53 %30.45 inEast (80°)2.3 mphClear
10:00 AM51.0 °F32.0 °F35 %9.0 miWSW (240°)4.6 mphClear
10:00 AM51.8 °F32.0 °F47 %30.48 inWSW (240°)4.6 mphClear
11:00 AM51.8 °F35.6 °F54 %30.48 inSouth (180°)4.6 mphClear
12:00 PM57.2 °F35.6 °F44 %30.48 inWest (260°)2.3 mphClear
1:00 PM62.0 °F33.0 °F22 %6.0 miENE (60°)2.3 mphClear
1:00 PM62.6 °F33.8 °F34 %30.48 inENE (60°)2.3 mphClear
2:00 PM62.6 °F35.6 °F37 %30.45 inNorth (360°)2.3 mphClear
3:00 PM62.6 °F32.0 °F32 %30.45 inNE (40°)6.9 mphClear
4:00 PM63.0 °F33.0 °F21 %12.0 miNE (40°)4.6 mphClear
4:00 PM62.6 °F33.8 °F34 %30.45 inNE (40°)4.6 mphClear
5:00 PM64.4 °F39.2 °F40 %30.42 inCalmClear
6:00 PM55.4 °F46.4 °F72 %30.45 inWSW (240°)4.6 mphClear
7:00 PM49.0 °F40.0 °F61 %12.0 miCalmClear
7:00 PM48.2 °F39.2 °F71 %30.45 inCalmClear
8:00 PM44.6 °F35.6 °F71 %30.45 inNE (40°)4.6 mphClear
9:00 PM41.0 °F35.6 °F81 %30.45 inNorth (360°)4.6 mphClear
10:00 PM40.0 °F35.0 °F76 %12.0 miNorth6.9 mphClear
10:00 PM39.2 °F35.6 °F87 %30.45 inNorth (360°)6.9 mphClear
11:00 PM41.0 °F33.8 °F76 %30.45 inNorth (360°)6.9 mphClear
Hourly data recorded from DAAS, located miles away from Setif, Algeria







STORIES FROM OUR PARTNERS